This is the latest recevied weather packets stored in our database for station/object DB0TGO-10. If no packets are shown the sender has not sent any weather packets the latest 10 day(s).
| Time | Temp. | Humidity | Pressure | Rain* | Wind** | Luminosity | Snow |
|---|---|---|---|---|---|---|---|
| 1777705796 | 20.56° C | 40% | 1023.7 hPa | 0 mm | - | - | - |
| 1777699501 | 16.11° C | 56% | 1024.3 hPa | 0 mm | - | - | - |
| 1777696270 | 11.67° C | 82% | 1024.3 hPa | 0 mm | - | - | - |
| 1777689360 | 8.33° C | 97% | 1024.6 hPa | 0 mm | - | - | - |
| 1777686466 | 8.33° C | 96% | 1024.6 hPa | 0 mm | - | - | - |
| 1777679988 | 8.89° C | 91% | 1025.4 hPa | 0 mm | - | - | - |
| 1777677006 | 10° C | 87% | 1025.7 hPa | 0 mm | - | - | - |
| 1777670715 | 11.67° C | 80% | 1025.8 hPa | 0 mm | - | - | - |
| 1777663855 | 15.56° C | 57% | 1026.2 hPa | 0 mm | - | - | - |
| 1777660430 | 20.56° C | 42% | 1026.3 hPa | 0 mm | - | - | - |
| 1777657107 | 23.33° C | 33% | 1026 hPa | 0 mm | - | - | - |
| 1777653949 | 27.22° C | 24% | 1026.2 hPa | 0 mm | - | - | - |
| 1777650595 | 26.11° C | 24% | 1026.7 hPa | 0 mm | - | - | - |
| 1777644086 | 25.56° C | 27% | 1027.7 hPa | 0 mm | - | - | - |
| 1777640568 | 25.56° C | 28% | 1028.5 hPa | 0 mm | - | - | - |
| 1777637540 | 23.89° C | 28% | 1029 hPa | 0 mm | - | - | - |
| 1777634346 | 22.78° C | 32% | 1029.4 hPa | 0 mm | - | - | - |
| 1777631055 | 22.78° C | 30% | 1029.9 hPa | 0 mm | - | - | - |
| 1777627661 | 22.22° C | 32% | 1030.3 hPa | 0 mm | - | - | - |
| 1777624356 | 19.44° C | 40% | 1030.5 hPa | 0 mm | - | - | - |
| 1777621321 | 17.22° C | 45% | 1030.6 hPa | 0 mm | - | - | - |
| 1777618049 | 13.89° C | 55% | 1030.7 hPa | 0 mm | - | - | - |
| 1777614661 | 11.11° C | 69% | 1030.5 hPa | 0 mm | - | - | - |
| 1777611676 | 7.78° C | 86% | 1030.4 hPa | 0 mm | - | - | - |
| 1777608436 | 4.44° C | 97% | 1030.5 hPa | 0 mm | - | - | - |
* Rain latest hour (hover to see other rain measurements)
** Current wind speed in m/s (hover to see current wind gust speed)